Погода в Кинтаново

Россия / Ярославская область     58°22′18″N   40°57′05″E
темп.,
°C
ветер,
м/с
пор.,
м/с
влажн.,
%
обл.,
%
осадки,
мм/ч
давл.,
гПа
погр.,
м
2 марта, вт
вт200:00+1з51298100 0.6 1004682
03:00+1з51298100 1.1 1003721
06:00+1зсз51193100 0.4 1001922
09:000зсз5128789 0.4 10011077
12:00+1зсз5108586 0.1 10011178
15:000зсз5108890 0.3 10021148
18:00−2сз41285100 0.1 10021086
21:00−5сз4128878 0.1 1005612
3 марта, ср
ср300:00−6сз4129068 0.0 1006763
03:00−7сз4129184 0.1 1009668
06:00−8сз41292100 0.1 1009544
09:00−7сз41189100 0.1 1010601
12:00−4зсз488639 0.0 1008615
15:00−2з498868 0.1 1007903
18:00−2з41193100 0.4 1004867
21:00−3з31193100 0.5 1004565
4 марта, чт
чт400:00−3з41195100 0.4 1001747
03:00−2зюз41194100 1.0 998763
06:00−2зюз399399 0.1 994589
09:00−1зсз4987100 0.9 9931086
12:00−2зсз598395 0.1 9941092
15:00−2с478197 0.4 996949
18:00−6ссз259066 0.1 997110
21:00−10ссз239433 0.1 99954
5 марта, пт
пт500:00−12ссз23964 0.0 100141
03:00−14ссз22947 0.0 100321
06:00−15ссз22950 0.0 100421
09:00−13с12874 0.0 1006123
12:00−7з11780 0.0 1007356
15:00−6юз237630 0.0 1008739
18:00−9юз239398 0.0 100836
21:00−11зюз229793 0.1 101024
6 марта, сб
сб600:00−13сз249381 0.0 1011103
03:00−16сз269587 0.0 1013157
06:00−19сз259644 0.0 101496
09:00−16сз259241 0.0 1014253
12:00−12сз248354 0.0 1015624
15:00−10з248170 0.0 1013569
18:00−13зюз239313 0.0 101265
21:00−16юз24946 0.0 101184